This demonstration page uses our WeatherBlox Daily Observations layout. Learn more.

Hourly Observations for October 20, 2020

Temp ( °F °C ) Dew Point ( °F °C ) Humidity (%) Winds ( mph kmh ) Pressure ( in mb ) Visibility ( mi km ) Precip ( " mm )
12:15 am 00:15 Cloudy 44 6.9 33 0.7 65 65 SSE 9 15 30.11 1020 10 16.0934 0 0
12:35 am 00:35 Cloudy 45 7 34 0.9 65 65 SSE 9 15 30.11 1020 10 16.0934 0 0
12:55 am 00:55 Cloudy 45 7 34 1 66 66 SSE 9 15 30.11 1020 10 16.0934 0 0
1:15 am 01:15 Cloudy 44 6.8 34 1 67 67 SE 12 19 30.1 1019 10 16.0934 0 0
1:35 am 01:35 Cloudy 44 6.7 34 1.1 68 68 SSE 7 11 30.1 1019 10 16.0934 0 0
1:55 am 01:55 Cloudy 44 6.7 34 1.2 68 68 SE 9 15 30.09 1019 10 16.0934 0 0
2:15 am 02:15 Cloudy 44 6.7 34 1.1 68 68 SSE 13 20 30.08 1019 10 16.0934 0 0
2:35 am 02:35 Cloudy 44 6.6 34 1.1 68 68 SSE 8 13 30.07 1018 10 16.0934 0 0
2:55 am 02:55 Cloudy 44 6.5 34 1.1 69 69 SSE 12 19 30.07 1018 10 16.0934 0 0
3:15 am 03:15 Cloudy 44 6.5 34 1 68 68 SSE 12 19 30.07 1018 10 16.0934 0 0
3:35 am 03:35 Cloudy 43 6.2 34 1 70 70 SSE 8 13 30.08 1019 10 16.0934 0 0
3:55 am 03:55 Cloudy 43 6.1 35 1.5 73 73 SSE 10 17 30.08 1019 10 16.0934 0 0
4:15 am 04:15 Cloudy 43 6 35 1.6 74 74 SSE 9 15 30.06 1018 10 16.0934 0 0
4:35 am 04:35 Cloudy 43 6 35 1.5 73 73 SSE 14 22 30.05 1018 10 16.0934 0 0
4:55 am 04:55 Cloudy 42 5.8 34 1.2 73 73 SSE 12 19 30.04 1017 10 16.0934 0 0
5:15 am 05:15 Cloudy 42 5.7 34 1.1 73 73 SSE 12 19 30.04 1017 10 16.0934 0 0
5:35 am 05:35 Cloudy 42 5.7 34 1.2 73 73 S 8 13 30.06 1018 10 16.0934 0 0
5:55 am 05:55 Cloudy 42 5.6 35 1.5 75 75 SSE 13 20 30.04 1017 10 16.0934 0 0
6:15 am 06:15 Cloudy 42 5.6 35 1.5 75 75 S 12 19 30.04 1017 10 16.0934 0 0
6:35 am 06:35 Cloudy 42 5.6 35 1.5 75 75 S 12 19 30.03 1017 10 16.0934 0 0
6:55 am 06:55 Mostly Cloudy 42 5.5 35 1.6 76 76 SSE 10 17 30.02 1017 10 16.0934 0 0
7:15 am 07:15 Partly Cloudy 41 5 35 1.5 78 78 S 9 15 30.03 1017 10 16.0934 0 0
7:35 am 07:35 Clear 40 4.3 35 1.5 82 82 S 6 9 30.02 1017 10 16.0934 0 0
7:55 am 07:55 Partly Cloudy 39 3.8 34 1.2 83 83 S 5 7 30.04 1017 10 16.0934 0 0
8:15 am 08:15 Mostly Cloudy 41 4.9 36 2.1 82 82 SSE 10 17 30.01 1016 10 16.0934 0 0
8:35 am 08:35 Cloudy 42 5.5 36 2.2 80 80 SSE 9 15 30.01 1016 10 16.0934 0 0
8:55 am 08:55 Cloudy 42 5.8 36 2.3 78 78 S 9 15 30.02 1017 10 16.0934 0 0
9:15 am 09:15 Cloudy 43 6 37 2.7 80 80 S 12 19 30.03 1017 10 16.0934 0 0
9:35 am 09:35 Mostly Cloudy 44 6.6 37 2.6 76 76 S 12 19 30.01 1016 10 16.0934 0 0
9:55 am 09:55 Cloudy 45 7.1 37 2.8 74 74 S 14 22 30.01 1016 10 16.0934 0 0
10:15 am 10:15 Cloudy 45 7.4 37 3 74 74 S 20 31 30 1016 10 16.0934 0 0
10:35 am 10:35 Mostly Cloudy 46 7.8 37 3 72 72 S 18 30 29.97 1015 10 16.0934 0 0
10:55 am 10:55 Mostly Cloudy 46 7.9 38 3.2 72 72 S 18 30 29.97 1015 10 16.0934 0 0
11:15 am 11:15 Cloudy 47 8.4 38 3.5 72 72 S 16 26 29.97 1015 10 16.0934 0 0
11:35 am 11:35 Cloudy 47 8.6 38 3.5 71 71 S 15 24 29.98 1015 10 16.0934 0 0
11:55 am 11:55 Cloudy 49 9.4 38 3.6 67 67 SSW 14 22 29.97 1015 10 16.0934 0 0
12:15 pm 12:15 Cloudy 51 10.3 39 3.8 64 64 SSW 12 19 29.94 1014 10 16.0934 0 0
12:35 pm 12:35 Cloudy 51 10.5 39 3.7 63 63 SSW 12 19 29.94 1014 10 16.0934 0 0
12:55 pm 12:55 Cloudy 52 10.9 39 4 63 63 SSW 9 15 29.94 1014 10 16.0934 0 0
1:15 pm 13:15 Cloudy 52 11 40 4.2 63 63 SW 9 15 29.94 1014 10 16.0934 0 0
1:35 pm 13:35 Cloudy 53 11.8 40 4.5 61 61 SW 10 17 29.92 1013 10 16.0934 0 0
1:55 pm 13:55 Cloudy 54 12.1 40 4.7 61 61 SW 14 22 29.9 1013 10 16.0934 0 0
2:15 pm 14:15 Partly Cloudy 55 12.5 40 4.6 59 59 SSW 13 20 29.89 1012 10 16.0934 0 0
2:35 pm 14:35 Sunny 55 12.6 40 4.5 58 58 SW 9 15 29.89 1012 10 16.0934 0 0
2:55 pm 14:55 Sunny 55 13 40 4.6 57 57 WSW 8 13 29.9 1012 10 16.0934 0 0
3:15 pm 15:15 Sunny 56 13.4 40 4.7 56 56 SW 10 17 29.89 1012 10 16.0934 0 0
3:35 pm 15:35 Sunny 58 14.2 40 4.7 53 53 WSW 8 13 29.88 1012 10 16.0934 0 0
3:55 pm 15:55 Sunny 58 14.2 40 4.5 52 52 W 8 13 29.89 1012 10 16.0934 0 0
4:15 pm 16:15 Sunny 58 14.4 40 4.6 52 52 WNW 3 6 29.89 1012 10 16.0934 0 0
4:35 pm 16:35 Sunny 59 14.8 39 4 49 49 NW 5 7 29.89 1012 10 16.0934 0 0
4:55 pm 16:55 Sunny 58 14.6 39 4 49 49 Calm 29.9 1013 10 16.0934 0 0
5:15 pm 17:15 Sunny 59 14.8 39 3.7 48 48 W 3 6 29.9 1013 10 16.0934 0 0
5:35 pm 17:35 Sunny 60 15.6 38 3.6 45 45 Calm 29.89 1012 10 16.0934 0 0
5:55 pm 17:55 Sunny 59 15.1 38 3.5 46 46 NNW 3 6 29.9 1012 10 16.0934 0 0
6:15 pm 18:15 Hazy 57 14 38 3.6 50 50 Calm 29.92 1013 5 8.0467 0 0
6:35 pm 18:35 Sunny 55 12.5 38 3.4 54 54 ESE 3 6 29.94 1014 7 11.26538 0 0
6:55 pm 18:55 Clear 53 11.5 38 3.5 58 58 Calm 29.96 1015 10 16.0934 0 0
7:15 pm 19:15 Clear 53 11.5 38 3.4 58 58 N 5 7 29.97 1015 10 16.0934 0 0
7:35 pm 19:35 Hazy 48 8.9 36 2.4 64 64 N 8 13 30.01 1016 5 8.0467 0 0
7:55 pm 19:55 Clear 50 9.8 38 3.1 63 63 NNE 6 9 30.01 1016 10 16.0934 0 0
8:15 pm 20:15 Clear 48 9.1 37 2.8 65 65 NNE 9 15 30.02 1017 10 16.0934 0 0
8:35 pm 20:35 Clear 49 9.5 38 3.2 65 65 NNE 6 9 30.03 1017 10 16.0934 0 0
8:55 pm 20:55 Clear 48 8.9 37 2.7 65 65 NNE 7 11 30.05 1018 10 16.0934 0 0
9:15 pm 21:15 Clear 47 8.3 37 2.7 68 68 NNE 6 9 30.08 1019 10 16.0934 0 0
9:35 pm 21:35 Clear 45 7.1 36 2.1 71 71 NNE 5 7 30.09 1019 10 16.0934 0 0
9:55 pm 21:55 Clear 45 7.3 37 2.5 72 72 NNE 5 7 30.11 1020 10 16.0934 0 0
10:15 pm 22:15 Clear 44 6.8 36 2.3 73 73 Calm 30.12 1020 10 16.0934 0 0
10:35 pm 22:35 Clear 44 6.7 36 2.3 74 74 Calm 30.14 1021 10 16.0934 0 0
10:55 pm 22:55 Clear 44 6.8 37 2.6 75 75 N 5 7 30.14 1021 10 16.0934 0 0
11:15 pm 23:15 Clear 46 7.5 37 3 73 73 NNE 5 7 30.16 1021 10 16.0934 0 0
11:35 pm 23:35 Clear 46 7.6 37 2.9 72 72 Calm 30.15 1021 10 16.0934 0 0
11:55 pm 23:55 Clear 44 6.7 37 2.6 75 75 N 3 6 30.16 1021 10 16.0934 0 0

Powered by AerisWeather